Change the Weather History Date:

Sunday, May 26, 2013

  Actual Average Record
Temperature  
Mean Temperature 72 °F -  
Max Temperature 80 °F 73 °F 80 °F (2006)
Min Temperature 64 °F 62 °F 60 °F (2001)
Cooling Degree Days 7    
Growing Degree Days 22 (Base 50)    
Moisture  
Dew Point 51 °F    
Average Humidity 48    
Maximum Humidity 83    
Minimum Humidity 26    
Precipitation  
Precipitation 0.00 in - - ()
Sea Level Pressure  
Sea Level Pressure 29.96 in    
Wind  
Wind Speed 9 mph ()    
Max Wind Speed 22 mph    
Max Gust Speed 31 mph    
Averages and records for this station are not official NWS values.
T = Trace of Precipitation, MM = Missing Value Source: Averaged Metar Reports

Daily Weather History Graph

Daily Weather History Graph

Search for Another Location

Airport or City:

Trip Planner

Search our weather history database for the weather conditions in past years. The results will help you decide how hot, cold, wet, or windy it might be!

Date:

Astronomy

May. 26, 2013 Rise Set
Actual Time 6:04 AM EEST 8:26 PM EEST
Civil Twilight 5:34 AM EEST 8:56 PM EEST
Nautical Twilight 4:58 AM EEST 9:32 PM EEST
Astronomical Twilight 4:18 AM EEST 10:12 PM EEST
Moon 9:56 PM EEST (5/26) 7:12 AM EEST (5/26)
Length of Visible Light 15h 21m
Length of Day
14h 22m
Full, 98% of the Moon is Illuminated
May 26
Full
May 31
Last Quarter
Jun 8
New
Jun 16
First Quarter
Jun 23
Full

Hourly Weather History & Observations

Time (EEST) Temp. Dew Point Humidity Pressure Visibility Wind Dir Wind Speed Gust Speed Precip Events Conditions
12:20 AM 68.0 °F 50.0 °F 52% 29.98 in - SSW 8.1 mph - N/A   Unknown
12:50 AM 68.0 °F 55.4 °F 64% 29.98 in - Variable 3.5 mph - N/A   Unknown
1:20 AM 68.0 °F 55.4 °F 64% 29.98 in - Variable 2.3 mph - N/A   Unknown
1:50 AM 68.0 °F 55.4 °F 64% 29.95 in - SSW 10.4 mph - N/A   Unknown
2:20 AM 68.0 °F 55.4 °F 64% 29.95 in - Variable 3.5 mph - N/A   Unknown
2:50 AM 68.0 °F 57.2 °F 68% 29.95 in - South 4.6 mph - N/A   Unknown
3:20 AM 66.2 °F 57.2 °F 73% 29.95 in - Variable 3.5 mph - N/A   Unknown
3:50 AM 68.0 °F 60.8 °F 78% 29.95 in - East 5.8 mph - N/A   Unknown
4:20 AM 66.2 °F 60.8 °F 83% 29.95 in - Variable 3.5 mph - N/A   Unknown
4:50 AM 64.4 °F 59.0 °F 83% 29.95 in - Variable 3.5 mph - N/A Rain Light Rain
5:20 AM 68.0 °F 57.2 °F 68% 29.92 in - SSW 4.6 mph - N/A   Clear
5:50 AM 68.0 °F 53.6 °F 60% 29.95 in - SW 8.1 mph - N/A   Clear
6:20 AM 68.0 °F 57.2 °F 68% 29.95 in - NW 11.5 mph - N/A   Clear
6:50 AM 68.0 °F 59.0 °F 73% 29.95 in - Calm Calm - N/A   Clear
7:20 AM 69.8 °F 59.0 °F 68% 29.95 in - Calm Calm - N/A   Clear
7:50 AM 69.8 °F 60.8 °F 73% 29.95 in - SE 3.5 mph - N/A   Clear
8:20 AM 71.6 °F 59.0 °F 64% 29.98 in - North 5.8 mph - N/A   Clear
8:50 AM 73.4 °F 57.2 °F 57% 29.98 in - NNW 6.9 mph - N/A   Clear
9:20 AM 75.2 °F 59.0 °F 57% 29.98 in - Variable 5.8 mph - N/A   Clear
9:50 AM 78.8 °F 53.6 °F 42% 29.98 in - Variable 5.8 mph - N/A   Clear
10:20 AM 78.8 °F 53.6 °F 42% 29.98 in - South 6.9 mph - N/A   Clear
10:50 AM 80.6 °F 46.4 °F 30% 29.98 in - SSW 9.2 mph - N/A   Clear
11:20 AM 80.6 °F 42.8 °F 26% 29.98 in - West 13.8 mph - N/A   Clear
11:50 AM 80.6 °F 44.6 °F 28% 29.98 in - West 17.3 mph - N/A   Clear
12:20 PM 80.6 °F 46.4 °F 30% 29.98 in - West 17.3 mph - N/A   Clear
12:50 PM 80.6 °F 44.6 °F 28% 29.98 in - West 18.4 mph - N/A   Clear
1:20 PM 78.8 °F 48.2 °F 34% 29.98 in - West 18.4 mph - N/A   Clear
1:50 PM 77.0 °F 50.0 °F 39% 29.98 in - West 19.6 mph - N/A   Clear
2:20 PM 78.8 °F 48.2 °F 34% 29.98 in - West 19.6 mph - N/A   Clear
2:50 PM 78.8 °F 44.6 °F 30% 29.98 in - West 20.7 mph - N/A   Clear
3:20 PM 78.8 °F 42.8 °F 28% 29.98 in - West 20.7 mph - N/A   Clear
3:50 PM 78.8 °F 44.6 °F 30% 29.98 in - West 18.4 mph - N/A   Clear
4:20 PM 78.8 °F 41.0 °F 26% 29.98 in - West 17.3 mph - N/A   Clear
4:50 PM 78.8 °F 42.8 °F 28% 29.98 in - West 17.3 mph - N/A   Clear
5:20 PM 77.0 °F 44.6 °F 32% 29.95 in - West 16.1 mph - N/A   Clear
5:50 PM 77.0 °F 46.4 °F 34% 29.95 in - West 16.1 mph - N/A   Clear
6:20 PM 77.0 °F 42.8 °F 29% 29.95 in - West 18.4 mph - N/A   Clear
6:50 PM 75.2 °F 44.6 °F 34% 29.95 in - WSW 20.7 mph - N/A   Clear
7:20 PM 75.2 °F 44.6 °F 34% 29.95 in - West 20.7 mph - N/A   Clear
7:50 PM 75.2 °F 42.8 °F 31% 29.95 in - WSW 19.6 mph 31.1 mph N/A   Clear
8:20 PM 73.4 °F 48.2 °F 41% 29.95 in - WSW 21.9 mph - N/A   Clear
8:50 PM 73.4 °F 48.2 °F 41% 29.92 in - WSW 20.7 mph - N/A   Clear
9:20 PM 71.6 °F 46.4 °F 41% 29.95 in - WSW 21.9 mph - N/A   Clear
9:50 PM 71.6 °F 50.0 °F 46% 29.95 in - WSW 21.9 mph - N/A   Clear
10:20 PM 71.6 °F 50.0 °F 46% 29.95 in - WSW 19.6 mph 31.1 mph N/A   Clear
10:50 PM 71.6 °F 50.0 °F 46% 29.95 in - WSW 21.9 mph - N/A   Clear
11:20 PM 71.6 °F 51.8 °F 50% 29.95 in - WSW 20.7 mph - N/A   Clear
11:50 PM 69.8 °F 57.2 °F 64% 29.98 in - West 16.1 mph - N/A   Clear